South St. Paul, MN

12:54 AM CST on December 15, 2017 (GMT -0600)
South Saint Paul Municipal-Fleming

Weather History for KSGS - January, 2013

Change the Weather History Date:

Monday, January 21, 2013

  Actual Average (KSTP) Record (KSTP)
Temperature  
Mean Temperature -4 °F -  
Max Temperature 0 °F 21 °F 37 °F (1997)
Min Temperature -7 °F 6 °F -16 °F (2011)
Degree Days  
Heating Degree Days 68    
Moisture  
Dew Point -14 °F    
Average Humidity 61    
Maximum Humidity 70    
Minimum Humidity 53    
Precipitation  
Precipitation 0.00 in - - ()
Sea Level Pressure  
Sea Level Pressure 30.29 in    
Wind  
Wind Speed 12 mph (WNW)    
Max Wind Speed 16 mph    
Max Gust Speed 22 mph    
Visibility 9 miles    
Events      
Averages and records for this station are not official NWS values.
T = Trace of Precipitation, MM = Missing Value Source: NWS Daily Summary

Daily Weather History Graph

Daily Weather History Graph

Search for Another Location

Airport or City:

Trip Planner

Search our weather history database for the weather conditions in past years. The results will help you decide how hot, cold, wet, or windy it might be!

Date:

Astronomy

Jan. 21, 2013 Rise Set
Actual Time 7:42 AM CST 5:05 PM CST
Civil Twilight 7:09 AM CST 5:37 PM CST
Nautical Twilight 6:34 AM CST 6:13 PM CST
Astronomical Twilight 5:59 AM CST 6:48 PM CST
Moon 12:44 PM CST (1/21) 3:11 AM CST (1/21)
Length of Visible Light 10h 27m
Length of Day
9h 23m
Waxing Gibbous, 75% of the Moon is Illuminated
Jan 21
Waxing Gibbous
Jan 26
Full
Feb 3
Last Quarter
Feb 10
New
Feb 17
First Quarter

Hourly Weather History & Observations

Time (CST) Temp. Windchill Dew Point Humidity Pressure Visibility Wind Dir Wind Speed Gust Speed Precip Events Conditions
12:12 AM 0.3 °F -17.5 °F -10.8 °F 59% 30.27 in 10.0 mi NW 12.7 mph 19.6 mph N/A   Clear
12:32 AM 0.1 °F -19.8 °F -10.7 °F 60% 30.27 in 10.0 mi NW 16.1 mph - N/A   Clear
12:52 AM -0.6 °F -17.8 °F -11.2 °F 61% 30.26 in 10.0 mi NNW 11.5 mph - N/A   Clear
1:12 AM -0.4 °F -18.4 °F -10.8 °F 61% 30.26 in 10.0 mi NW 12.7 mph 17.3 mph N/A   Clear
1:32 AM -0.9 °F -17.4 °F -11.2 °F 62% 30.26 in 10.0 mi NNW 10.4 mph 18.4 mph N/A   Clear
1:52 AM -0.9 °F -16.4 °F -9.0 °F 69% 30.27 in 5.0 mi NNW 9.2 mph - N/A   Haze
2:12 AM -1.3 °F -20.3 °F -11.0 °F 63% 30.27 in 10.0 mi NW 13.8 mph 18.4 mph N/A   Scattered Clouds
2:32 AM -1.3 °F -19.6 °F -10.7 °F 65% 30.28 in 10.0 mi NW 12.7 mph - N/A   Scattered Clouds
2:52 AM -1.5 °F -18.1 °F -10.5 °F 66% 30.28 in 10.0 mi NW 10.4 mph - N/A   Mostly Cloudy
3:12 AM -1.8 °F -20.2 °F -11.4 °F 64% 30.28 in 10.0 mi WNW 12.7 mph 16.1 mph N/A   Scattered Clouds
3:32 AM -2.4 °F -22.4 °F -12.5 °F 62% 30.28 in 10.0 mi WNW 15.0 mph 21.9 mph N/A   Scattered Clouds
3:52 AM -3.3 °F -21.2 °F -14.6 °F 58% 30.28 in 10.0 mi NW 11.5 mph - N/A   Clear
4:12 AM -3.5 °F -22.3 °F -15.2 °F 57% 30.28 in 10.0 mi NW 12.7 mph 20.7 mph N/A   Clear
4:52 AM -4.5 °F -23.6 °F -13.0 °F 67% 30.28 in 4.0 mi WNW 12.7 mph 17.3 mph N/A   Haze
5:12 AM -4.9 °F -24.1 °F -14.3 °F 64% 30.28 in 10.0 mi WNW 12.7 mph 18.4 mph N/A   Clear
5:32 AM -5.8 °F -25.2 °F -14.6 °F 66% 30.29 in 5.0 mi WNW 12.7 mph - N/A   Haze
5:52 AM -5.8 °F -24.4 °F -13.2 °F 70% 30.29 in 2.5 mi WNW 11.5 mph - N/A   Haze
6:12 AM -6.3 °F -25.9 °F -17.1 °F 60% 30.30 in 10.0 mi NW 12.7 mph 17.3 mph N/A   Scattered Clouds
6:32 AM -7.2 °F -24.2 °F -18.4 °F 58% 30.30 in 10.0 mi NW 9.2 mph 13.8 mph N/A   Clear
6:52 AM -7.2 °F -26.2 °F -17.7 °F 60% 30.30 in 10.0 mi NW 11.5 mph - N/A   Clear
7:12 AM -7.4 °F -23.2 °F -17.7 °F 61% 30.31 in 10.0 mi NW 8.1 mph - N/A   Clear
7:32 AM -7.6 °F -25.7 °F -18.2 °F 60% 30.31 in 10.0 mi NW 10.4 mph 17.3 mph N/A   Clear
7:52 AM -7.2 °F -27.1 °F -17.5 °F 61% 30.31 in 10.0 mi WNW 12.7 mph 16.1 mph N/A   Clear
8:12 AM -7.6 °F -27.5 °F -18.4 °F 59% 30.32 in 10.0 mi WNW 12.7 mph - N/A   Clear
8:32 AM -7.6 °F -27.5 °F -18.4 °F 59% 30.32 in 10.0 mi NW 12.7 mph 17.3 mph N/A   Clear
8:52 AM -7.4 °F -25.4 °F -16.8 °F 64% 30.33 in 5.0 mi NW 10.4 mph - N/A   Haze
9:12 AM -7.6 °F -27.5 °F -17.0 °F 64% 30.33 in 4.0 mi NW 12.7 mph - N/A   Haze
9:32 AM -7.2 °F -27.1 °F -16.4 °F 64% 30.34 in 4.0 mi NW 12.7 mph - N/A   Haze
9:52 AM -6.7 °F -26.4 °F -16.8 °F 62% 30.33 in 7.0 mi WNW 12.7 mph 16.1 mph N/A   Clear
10:12 AM -6.2 °F -23.9 °F -16.2 °F 62% 30.34 in 7.0 mi WNW 10.4 mph - N/A   Clear
10:32 AM -6.0 °F -22.6 °F -15.9 °F 62% 30.34 in 5.0 mi NW 9.2 mph - N/A   Haze
10:52 AM -5.6 °F -23.2 °F -15.5 °F 62% 30.34 in 7.0 mi WNW 10.4 mph 16.1 mph N/A   Clear
11:12 AM -5.3 °F -24.6 °F -15.9 °F 60% 30.33 in 10.0 mi WNW 12.7 mph 17.3 mph N/A   Clear
11:32 AM -4.7 °F -23.0 °F -15.7 °F 59% 30.32 in 10.0 mi NW 11.5 mph 16.1 mph N/A   Clear
11:52 AM -4.2 °F -24.0 °F -15.5 °F 58% 30.31 in 10.0 mi NW 13.8 mph - N/A   Clear
12:12 PM -4.2 °F -19.3 °F -15.9 °F 57% 30.30 in 10.0 mi West 8.1 mph - N/A   Clear
12:32 PM -3.8 °F -21.0 °F -15.9 °F 56% 30.29 in 10.0 mi WNW 10.4 mph 16.1 mph N/A   Clear
12:52 PM -2.6 °F -19.4 °F -15.0 °F 56% 30.29 in 10.0 mi NW 10.4 mph 17.3 mph N/A   Clear
1:12 PM -2.2 °F -19.9 °F -15.3 °F 54% 30.28 in 10.0 mi WNW 11.5 mph - N/A   Clear
1:32 PM -2.2 °F -20.7 °F -15.3 °F 54% 30.28 in 10.0 mi WNW 12.7 mph 17.3 mph N/A   Clear
1:52 PM -2.4 °F -21.7 °F -15.7 °F 53% 30.28 in 10.0 mi WNW 13.8 mph 18.4 mph N/A   Clear
2:12 PM -2.2 °F -18.9 °F -14.8 °F 55% 30.28 in 10.0 mi West 10.4 mph 17.3 mph N/A   Clear
2:32 PM -2.0 °F -20.5 °F -14.8 °F 55% 30.27 in 10.0 mi West 12.7 mph - N/A   Clear
2:52 PM -1.7 °F -20.0 °F -14.6 °F 54% 30.27 in 10.0 mi West 12.7 mph - N/A   Clear
3:12 PM -2.2 °F -19.9 °F -15.2 °F 54% 30.27 in 10.0 mi West 11.5 mph 19.6 mph N/A   Clear
3:32 PM -2.2 °F -19.9 °F -14.8 °F 55% 30.27 in 10.0 mi WNW 11.5 mph 17.3 mph N/A   Clear
3:52 PM -2.4 °F -20.9 °F -14.4 °F 57% 30.27 in 10.0 mi WNW 12.7 mph 17.3 mph N/A   Clear
4:12 PM -2.2 °F -21.5 °F -14.3 °F 57% 30.27 in 10.0 mi WNW 13.8 mph - N/A   Clear
4:32 PM -2.2 °F -20.7 °F -14.1 °F 57% 30.27 in 10.0 mi WNW 12.7 mph - N/A   Clear
4:52 PM -2.7 °F -20.5 °F -14.4 °F 57% 30.27 in 10.0 mi WNW 11.5 mph - N/A   Clear
5:12 PM -2.7 °F -20.5 °F -14.1 °F 58% 30.28 in 10.0 mi WNW 11.5 mph - N/A   Clear
5:32 PM -3.1 °F -19.1 °F -14.1 °F 59% 30.28 in 10.0 mi WNW 9.2 mph - N/A   Clear
5:52 PM -3.1 °F -21.0 °F -13.9 °F 60% 30.28 in 10.0 mi WNW 11.5 mph - N/A   Clear
6:12 PM -3.3 °F -22.8 °F -13.4 °F 62% 30.28 in 10.0 mi West 13.8 mph - N/A   Clear
6:32 PM -3.3 °F -16.9 °F -13.4 °F 62% 30.29 in 10.0 mi West 6.9 mph - N/A   Clear
6:52 PM -3.3 °F -18.2 °F -13.5 °F 62% 30.29 in 10.0 mi West 8.1 mph - N/A   Clear
7:12 PM -3.3 °F -21.2 °F -13.7 °F 61% 30.30 in 10.0 mi WNW 11.5 mph 16.1 mph N/A   Clear
7:32 PM -3.3 °F -20.3 °F -13.5 °F 62% 30.30 in 10.0 mi WNW 10.4 mph - N/A   Clear
7:52 PM -3.3 °F -20.3 °F -13.4 °F 62% 30.30 in 10.0 mi WNW 10.4 mph 16.1 mph N/A   Clear
8:12 PM -3.3 °F -19.3 °F -13.2 °F 63% 30.30 in 10.0 mi WNW 9.2 mph - N/A   Clear
8:32 PM -3.3 °F -16.9 °F -13.2 °F 63% 30.30 in 10.0 mi WNW 6.9 mph - N/A   Clear
8:52 PM -3.3 °F -21.2 °F -13.2 °F 63% 30.29 in 10.0 mi WNW 11.5 mph - N/A   Clear
9:12 PM -3.3 °F -20.3 °F -12.8 °F 64% 30.30 in 10.0 mi WNW 10.4 mph - N/A   Clear
9:32 PM -3.3 °F -16.9 °F -13.0 °F 63% 30.30 in 10.0 mi WNW 6.9 mph - N/A   Clear
9:52 PM -3.1 °F -17.9 °F -12.5 °F 64% 30.30 in 10.0 mi WNW 8.1 mph - N/A   Clear
10:12 PM -3.1 °F -16.7 °F -12.5 °F 64% 30.30 in 10.0 mi WNW 6.9 mph - N/A   Clear
10:32 PM -3.1 °F -15.2 °F -12.1 °F 65% 30.30 in 10.0 mi WNW 5.8 mph - N/A   Clear
10:52 PM -3.1 °F -13.5 °F -12.1 °F 65% 30.30 in 10.0 mi West 4.6 mph - N/A   Clear
11:12 PM -3.3 °F -13.7 °F -12.1 °F 66% 30.30 in 10.0 mi WNW 4.6 mph - N/A   Clear
11:32 PM -3.5 °F -13.9 °F -11.7 °F 68% 30.30 in 10.0 mi WNW 4.6 mph - N/A   Clear
11:52 PM -3.5 °F -17.1 °F -11.7 °F 68% 30.29 in 10.0 mi NW 6.9 mph - N/A   Clear